Location: Ferchesar
(52.6477°N, 12.4298°E)
Time: 04:47:17
(UTC+02:00)

Vanguard 3 - Pass Details

Date: 07 March 2021
Orbit: 508 x 3262 km, 33.3° (Epoch: 15 April)

Event Time Altitude Azimuth Distance (km) Brightness Sun altitude
Rises 13:08:41 0° 210° (SSW) 6,954 12.9 31.4°
Reaches altitude 10° 13:14:21 10° 200° (SSW) 6,116 13.2 31.2°
Maximum altitude 13:28:55 27° 153° (SSE) 4,792 12.0 30.5°
Drops below altitude 10° 13:41:56 10° 104° (ESE) 5,478 11.4 29.8°
Sets 13:46:33 0° 94° (E) 6,140 11.4 29.5°
